Change the Weather History Date:

Thursday, March 20, 2014

  Actual Average Record
Temperature  
Mean Temperature 53 °F -  
Max Temperature 69 °F 61 °F 84 °F (2011)
Min Temperature 37 °F 43 °F 32 °F (2008)
Degree Days  
Heating Degree Days 12    
Growing Degree Days 3 (Base 50)    
Moisture  
Dew Point 36 °F    
Average Humidity 62    
Maximum Humidity 93    
Minimum Humidity 23    
Precipitation  
Precipitation 0.00 in - - ()
Sea Level Pressure  
Sea Level Pressure 30.15 in    
Wind  
Wind Speed 4 mph (WNW)    
Max Wind Speed 8 mph    
Max Gust Speed -    
Visibility 10 miles    
Events      
Averages and records for this station are not official NWS values.
T = Trace of Precipitation, MM = Missing Value Source: NWS Daily Summary

Daily Weather History Graph

Daily Weather History Graph

Search for Another Location

Airport or City:

Trip Planner

Search our weather history database for the weather conditions in past years. The results will help you decide how hot, cold, wet, or windy it might be!

Date:

Astronomy

Mar. 20, 2014 Rise Set
Actual Time 7:03 AM CDT 7:11 PM CDT
Civil Twilight 6:37 AM CDT 7:36 PM CDT
Nautical Twilight 6:08 AM CDT 8:06 PM CDT
Astronomical Twilight 5:38 AM CDT 8:36 PM CDT
Moon 11:21 PM CDT (3/20) 9:17 AM CDT (3/20)
Length of Visible Light 12h 58m
Length of Day
12h 08m
Waning Gibbous, 84% of the Moon is Illuminated
Mar 20
Waning Gibbous
Mar 23
Last Quarter
Mar 30
New
Apr 7
First Quarter
Apr 15
Full

Hourly Weather History & Observations

Time (CDT) Temp. Windchill Dew Point Humidity Pressure Visibility Wind Dir Wind Speed Gust Speed Precip Events Conditions
12:50 AM 46.4 °F 45.2 °F 39.2 °F 76% 30.17 in 10.0 mi WNW 3.5 mph - N/A   Clear
1:50 AM 44.6 °F 42.2 °F 37.4 °F 76% 30.18 in 10.0 mi NW 4.6 mph - N/A   Clear
2:15 AM 44.6 °F 42.2 °F 37.4 °F 76% 30.18 in 10.0 mi NW 4.6 mph - N/A   Clear
2:35 AM 42.8 °F 40.1 °F 37.4 °F 81% 30.17 in 10.0 mi NNW 4.6 mph - N/A   Clear
2:55 AM 42.8 °F 40.1 °F 35.6 °F 76% 30.17 in 10.0 mi NW 4.6 mph - N/A   Clear
3:15 AM 41.0 °F 37.1 °F 35.6 °F 81% 30.17 in 10.0 mi NNW 5.8 mph - N/A   Clear
3:35 AM 41.0 °F 38.0 °F 35.6 °F 81% 30.16 in 10.0 mi NNW 4.6 mph - N/A   Clear
3:55 AM 39.2 °F 35.9 °F 35.6 °F 87% 30.17 in 10.0 mi NW 4.6 mph - N/A   Clear
4:15 AM 41.0 °F 38.0 °F 35.6 °F 81% 30.17 in 10.0 mi NW 4.6 mph - N/A   Clear
4:35 AM 41.0 °F 39.0 °F 35.6 °F 81% 30.18 in 10.0 mi NNW 3.5 mph - N/A   Clear
4:55 AM 41.0 °F - 35.6 °F 81% 30.18 in 10.0 mi Calm Calm - N/A   Clear
5:30 AM 44.6 °F 42.2 °F 37.4 °F 76% 30.18 in 10.0 mi NW 4.6 mph - N/A   Clear
5:50 AM 39.2 °F - 37.4 °F 93% 30.19 in 10.0 mi Calm Calm - N/A   Clear
6:50 AM - - - N/A% 30.19 in 10.0 mi Calm Calm - N/A   Clear
7:50 AM 37.4 °F - 35.6 °F 93% 30.20 in 10.0 mi Calm Calm - N/A   Clear
8:50 AM 44.6 °F - 39.2 °F 81% 30.20 in 10.0 mi Calm Calm - N/A   Clear
9:50 AM 50.0 °F - 39.2 °F 66% 30.22 in 10.0 mi Calm Calm - N/A   Clear
10:50 AM 55.4 °F - 37.4 °F 51% 30.21 in 10.0 mi SSE 4.6 mph - N/A   Clear
11:50 AM 59.0 °F - 35.6 °F 42% 30.20 in 10.0 mi SSE 4.6 mph - N/A   Clear
12:50 PM 64.4 °F - 35.6 °F 34% 30.19 in 10.0 mi Variable 4.6 mph - N/A   Clear
1:50 PM 64.4 °F - 35.6 °F 34% 30.15 in 10.0 mi West 5.8 mph - N/A   Clear
2:50 PM 66.2 °F - 35.6 °F 32% 30.13 in 10.0 mi Variable 5.8 mph - N/A   Clear
3:50 PM 68.0 °F - 28.4 °F 23% 30.11 in 10.0 mi SSW 3.5 mph - N/A   Clear
4:50 PM 69.8 °F - 33.8 °F 27% 30.08 in 10.0 mi WSW 5.8 mph - N/A   Clear
5:50 PM 69.8 °F - 33.8 °F 27% 30.07 in 10.0 mi WSW 4.6 mph - N/A   Clear
6:50 PM 62.6 °F - 33.8 °F 34% 30.07 in 10.0 mi West 8.1 mph - N/A   Clear
7:55 PM 57.2 °F - 32.0 °F 38% 30.06 in 10.0 mi West 8.1 mph - N/A   Partly Cloudy
8:50 PM 55.4 °F - 32.0 °F 41% 30.07 in 10.0 mi Calm Calm - N/A   Partly Cloudy
9:50 PM 48.2 °F - 33.8 °F 58% 30.07 in 10.0 mi Calm Calm - N/A   Clear
10:50 PM 48.2 °F - 35.6 °F 62% 30.08 in 10.0 mi Calm Calm - N/A   Clear
11:50 PM 44.6 °F 43.1 °F 33.8 °F 66% 30.08 in 10.0 mi ESE 3.5 mph - N/A   Clear